Weather reports worldwide

Advertisment
Belgrad, Serbia (13274): temperature & dewpoint: 21.04.2018 00:00:00 - 27.04.2018 00:00:00 (CEST)Belgrad, Serbia (13274): wind speed: 21.04.2018 00:00:00 - 27.04.2018 00:00:00 (CEST)Belgrad, Serbia (13274): wind direction: 21.04.2018 00:00:00 - 27.04.2018 00:00:00 (CEST)Belgrad, Serbia (13274): reduced air pressure: 21.04.2018 00:00:00 - 27.04.2018 00:00:00 (CEST)Belgrad, Serbia (13274): visibility: 21.04.2018 00:00:00 - 27.04.2018 00:00:00 (CEST)
Date & Time tt [°C] td [°C] ff [km/h] ff [kn] dd ppp [hPa] vv [km]
27.04.2018 00:00:00 - - - - - - -
26.04.2018 23:00:00 17,3 6,8 14 8 NNE 1014,5 30
26.04.2018 22:00:00 - - - - - - -
26.04.2018 21:00:00 - - - - - - -
26.04.2018 20:00:00 23,2 11,2 14 8 NNE 1010,8 30
26.04.2018 19:00:00 - - - - - - -
26.04.2018 18:00:00 - - - - - - -
26.04.2018 17:00:00 28,0 9,0 11 6 W 1009,8 20
26.04.2018 16:00:00 - - - - - - -
26.04.2018 15:00:00 - - - - - - -
26.04.2018 14:00:00 27,6 8,8 7 4 W 1011,1 20
26.04.2018 13:00:00 - - - - - - -
26.04.2018 12:00:00 - - - - - - -
26.04.2018 11:00:00 25,1 8,8 7 4 W 1013,1 20
26.04.2018 10:00:00 - - - - - - -
26.04.2018 09:00:00 - - - - - - -
26.04.2018 08:00:00 20,4 13,2 4 2 SW 1013,5 20
26.04.2018 07:00:00 - - - - - - -
26.04.2018 06:00:00 - - - - - - -
26.04.2018 05:00:00 17,1 13,6 4 2 SSE 1012,1 20
26.04.2018 04:00:00 - - - - - - -
26.04.2018 03:00:00 - - - - - - -
26.04.2018 02:00:00 20,3 12,4 4 2 SE 1014,3 20
26.04.2018 01:00:00 - - - - - - -
26.04.2018 00:00:00 - - - - - - -
25.04.2018 23:00:00 20,6 12,0 4 2 SE 1012,6 30
25.04.2018 22:00:00 - - - - - - -
25.04.2018 21:00:00 - - - - - - -
25.04.2018 20:00:00 24,2 12,5 4 2 SSE 1011,4 30
25.04.2018 19:00:00 - - - - - - -
25.04.2018 18:00:00 - - - - - - -
25.04.2018 17:00:00 28,8 10,6 7 4 WSW 1011,8 30
25.04.2018 16:00:00 - - - - - - -
25.04.2018 15:00:00 - - - - - - -
25.04.2018 14:00:00 27,9 12,8 7 4 SW 1014,0 30
25.04.2018 13:00:00 - - - - - - -
25.04.2018 12:00:00 - - - - - - -
25.04.2018 11:00:00 25,2 13,6 4 2 ESE 1016,0 30
25.04.2018 10:00:00 - - - - - - -
25.04.2018 09:00:00 - - - - - - -
25.04.2018 08:00:00 18,8 13,2 4 2 SSE 1016,7 20
25.04.2018 07:00:00 - - - - - - -
25.04.2018 06:00:00 - - - - - - -
25.04.2018 05:00:00 15,1 14,3 4 2 SSE 1016,1 20
25.04.2018 04:00:00 - - - - - - -
25.04.2018 03:00:00 - - - - - - -
25.04.2018 02:00:00 16,6 14,0 4 2 SSE 1016,4 20
25.04.2018 01:00:00 - - - - - - -
25.04.2018 00:00:00 - - - - - - -
24.04.2018 23:00:00 18,8 13,5 0 0 N 1016,9 20
24.04.2018 22:00:00 - - - - - - -
24.04.2018 21:00:00 - - - - - - -
24.04.2018 20:00:00 23,0 11,8 4 2 NNE 1015,3 20
24.04.2018 19:00:00 - - - - - - -
24.04.2018 18:00:00 - - - - - - -
24.04.2018 17:00:00 25,4 13,9 7 4 N 1014,7 20
24.04.2018 16:00:00 - - - - - - -
24.04.2018 15:00:00 - - - - - - -
24.04.2018 14:00:00 25,4 13,8 7 4 NNE 1015,9 20
24.04.2018 13:00:00 - - - - - - -
24.04.2018 12:00:00 - - - - - - -
24.04.2018 11:00:00 21,8 13,1 7 4 W 1015,8 20
24.04.2018 10:00:00 - - - - - - -
24.04.2018 09:00:00 - - - - - - -
24.04.2018 08:00:00 16,8 11,7 7 4 W 1015,3 30
24.04.2018 07:00:00 - - - - - - -
24.04.2018 06:00:00 - - - - - - -
24.04.2018 05:00:00 16,4 11,7 4 2 NNE 1013,8 30
24.04.2018 04:00:00 - - - - - - -
24.04.2018 03:00:00 - - - - - - -
24.04.2018 02:00:00 17,8 11,7 4 2 NNE 1013,6 30
24.04.2018 01:00:00 - - - - - - -
24.04.2018 00:00:00 - - - - - - -
23.04.2018 23:00:00 20,3 11,1 7 4 SSE 1013,5 30
23.04.2018 22:00:00 - - - - - - -
23.04.2018 21:00:00 - - - - - - -
23.04.2018 20:00:00 23,6 11,5 0 0 N 1013,1 40
23.04.2018 19:00:00 - - - - - - -
23.04.2018 18:00:00 - - - - - - -
23.04.2018 17:00:00 28,8 11,8 4 2 WSW 1012,9 40
23.04.2018 16:00:00 - - - - - - -
23.04.2018 15:00:00 - - - - - - -
23.04.2018 14:00:00 26,4 10,5 7 4 SW 1014,9 40
23.04.2018 13:00:00 - - - - - - -
23.04.2018 12:00:00 - - - - - - -
23.04.2018 11:00:00 22,8 10,3 7 4 W 1015,9 40
23.04.2018 10:00:00 - - - - - - -
23.04.2018 09:00:00 - - - - - - -
23.04.2018 08:00:00 17,8 9,7 7 4 S 1015,4 40
23.04.2018 07:00:00 - - - - - - -
23.04.2018 06:00:00 - - - - - - -
23.04.2018 05:00:00 13,5 8,0 4 2 SE 1015,0 40
23.04.2018 04:00:00 - - - - - - -
23.04.2018 03:00:00 - - - - - - -
23.04.2018 02:00:00 14,8 8,3 4 2 SE 1015,2 40
23.04.2018 01:00:00 - - - - - - -
23.04.2018 00:00:00 - - - - - - -
22.04.2018 23:00:00 16,9 5,8 4 2 SE 1014,8 40
22.04.2018 22:00:00 - - - - - - -
22.04.2018 21:00:00 - - - - - - -
22.04.2018 20:00:00 21,4 5,8 4 2 S 1014,2 40
22.04.2018 19:00:00 - - - - - - -
22.04.2018 18:00:00 - - - - - - -
22.04.2018 17:00:00 26,0 7,2 7 4 WSW 1014,0 40
22.04.2018 16:00:00 - - - - - - -
22.04.2018 15:00:00 - - - - - - -
22.04.2018 14:00:00 24,7 8,8 7 4 W 1015,6 30
22.04.2018 13:00:00 - - - - - - -
22.04.2018 12:00:00 - - - - - - -
22.04.2018 11:00:00 21,4 10,6 4 2 W 1017,3 30
22.04.2018 10:00:00 - - - - - - -
22.04.2018 09:00:00 - - - - - - -
22.04.2018 08:00:00 16,2 8,3 0 0 N 1017,4 30
22.04.2018 07:00:00 - - - - - - -
22.04.2018 06:00:00 - - - - - - -
22.04.2018 05:00:00 11,5 7,2 4 2 SE 1017,2 30
22.04.2018 04:00:00 - - - - - - -
22.04.2018 03:00:00 - - - - - - -
22.04.2018 02:00:00 13,8 6,8 0 0 N 1017,5 30
22.04.2018 01:00:00 - - - - - - -
22.04.2018 00:00:00 - - - - - - -
21.04.2018 23:00:00 15,9 6,4 4 2 SE 1018,1 40
21.04.2018 22:00:00 - - - - - - -
21.04.2018 21:00:00 - - - - - - -
21.04.2018 20:00:00 20,0 5,8 4 2 ENE 1018,3 40
21.04.2018 19:00:00 - - - - - - -
21.04.2018 18:00:00 - - - - - - -
21.04.2018 17:00:00 24,2 6,0 4 2 W 1019,0 40
21.04.2018 16:00:00 - - - - - - -
21.04.2018 15:00:00 - - - - - - -
21.04.2018 14:00:00 22,7 6,0 7 4 W 1021,0 40
21.04.2018 13:00:00 - - - - - - -
21.04.2018 12:00:00 - - - - - - -
21.04.2018 11:00:00 19,8 6,4 7 4 W 1022,7 40
21.04.2018 10:00:00 - - - - - - -
21.04.2018 09:00:00 - - - - - - -
21.04.2018 08:00:00 13,1 7,0 7 4 SSW 1022,9 40
21.04.2018 07:00:00 - - - - - - -
21.04.2018 06:00:00 - - - - - - -
21.04.2018 05:00:00 9,1 7,9 4 2 SSE 1022,3 40
21.04.2018 04:00:00 - - - - - - -
21.04.2018 03:00:00 - - - - - - -
21.04.2018 02:00:00 11,0 8,6 4 2 SE 1022,2 40
21.04.2018 01:00:00 - - - - - - -
21.04.2018 00:00:00 - - - - - - -

tt = temperature
td = dewpoint
ff = wind speed
dd = wind direction
ppp = reduced air pressure
vv = visibility

Next stations